Location: Redwood Loop Observatory
(43.9900°N, 124.0900°W)
Time: 02:04:41
(UTC-07:00)

ISS - Visible Passes

Search period start: 20 October 2019 00:00
Search period end: 30 October 2019 00:00
Orbit: 411 x 421 km, 51.6° (Epoch: 20 October)

Date Brightness Start Highest point End Pass type
(mag) Time Alt. Az. Time Alt. Az. Time Alt. Az.
22 Oct -0.8 07:07:15 10° S 07:09:40 18° SE 07:12:05 10° E visible
23 Oct -0.5 06:20:17 10° SSE 06:21:17 11° SE 06:22:17 10° ESE visible
24 Oct -2.7 07:05:41 10° SW 07:08:56 47° SE 07:12:11 10° ENE visible
25 Oct -1.8 06:17:29 10° SSW 06:20:25 28° SE 06:23:21 10° ENE visible
26 Oct -1.3 05:31:20 16° SSE 05:31:57 17° SE 05:34:14 10° E visible
26 Oct -3.8 07:04:59 10° WSW 07:08:20 71° NNW 07:11:43 10° NE visible
27 Oct -3.6 06:18:13 30° SW 06:19:42 73° SE 06:23:04 10° ENE visible
28 Oct -2.1 05:31:59 34° E 05:31:59 34° E 05:34:19 10° ENE visible
28 Oct -2.9 07:04:54 11° W 07:07:53 36° NNW 07:11:02 10° NE visible
29 Oct -3.4 06:18:32 43° WNW 06:19:08 50° NNW 06:22:26 10° NE visible
